Погода в Иноковке 2-ой

Россия / Тамбовская область     52°32′59″N   42°31′11″E
темп.,
°C
ветер,
м/с
пор.,
м/с
влажн.,
%
обл.,
%
осадки,
мм/ч
давл.,
гПа
погр.,
м
15 мая, сб
сб1500:00+17юв388666 0.0 1013125
03:00+16ююв51381100 0.0 1013263
06:00+15ююв5128171 0.0 1014285
09:00+20ю6117090 0.0 1014501
12:00+23ю7105422 0.0 1014996
15:00+24ю6115776 0.0 10141452
18:00+23ююз486959 0.0 1014333
21:00+18зюз22855 0.0 101411
16 мая, вс
вс1600:00+17зсз3391100 0.1 101538
03:00+15ссз2286100 1.6 101516
06:00+17ссв2284100 0.1 101655
09:00+20св238097 3.2 1016399
12:00+24ююв465315 0.0 10151164
15:00+25ю564892 0.0 10151143
18:00+23ю246694 0.0 1015112
21:00+18вюв127293 0.0 101511
17 мая, пн
пн1700:00+17в337357 0.0 101527
03:00+15вюв4573100 0.0 101565
06:00+16юв386988 0.0 1015134
09:00+21юв51055100 0.0 1015410
12:00+24ююв5949100 0.0 1015685
15:00+26юв595198 0.0 10141132
18:00+24юв410635 0.0 1013283
21:00+19вюв51565100 0.0 1013256
18 мая, вт
вт1800:00+17юв4155954 0.0 1013274
03:00+15юв413565 0.0 1012236
06:00+15юв411705 0.0 1012217
09:00+22ююв6115340 0.0 1012438
12:00+25ююв694332 0.0 1012892
15:00+27ююв5848100 0.0 10111524
18:00+23ю3767100 0.0 1010180
21:00+19ю117197 0.0 101011
19 мая, ср
ср1900:00+17з3473100 0.0 101145
03:00+16з3586100 0.0 1011107
06:00+17юв1179100 0.3 101126
09:00+19ю597592 0.4 1012582
12:00+23ююз79605 0.0 10121549
15:00+23юз6962100 0.1 10131430
18:00+22ююз366957 0.0 1013427
21:00+18юз2278100 0.3 101413